Powrót do katalogu

STARLINK-35133

AktywnyŁącznośćSSO
NORAD 65535·PAYLOAD·🇺🇸 United States

Wystrzelony Sep 6, 2025 z Cape Canaveral Space Force Station

Loading…

Następne Przeloty (najbliższe 24 godziny)

TLE

ŚwieżeSource: CelesTrak SupGP

Epoka: Sep 14, 2026, 20:47 UTC

1 65535C 25200R   26257.86645833 -.00035253  00000+0 -10943-2 0  2573
2 65535  97.2838 324.3844 0000862  90.4645 181.3142 15.33459650    17

Śledź STARLINK-35133 w czasie rzeczywistym z AllMySat

Download on the App Store